Miscellaneous Local Product
Issued by NWS North Platte, NE

Home | Current Version | Previous Version | Text Only | Print | Product List | Glossary On
Versions: 1 2 3 4 5 6 7 8 9 10 11 12 13 14 15 16 17 18 19 20 21 22 23 24 25 26 27 28 29 30 31 32 33 34 35 36 37 38 39 40 41 42 43 44 45 46 47 48 49 50
000
AXUS43 KLBF 192210
MISLBF


WESTERN AND NORTH CENTRAL NEBRASKA HOURLY WEATHER ROUNDUP
NATIONAL WEATHER SERVICE NORTH PLATTE NE
500 PM CDT TUE AUG 19 2014

***STATIONS NOT REPORTING VARIABLES SUCH AS SKY/WEATHER OR
PRESSURE ARE PROVIDED BY THE NEBRASKA DEPARTMENT OF
ROADS...RAWS...AND APRS NETWORKS...AND ARE NOT UNDER
NATIONAL WEATHER SERVICE QUALITY CONTROL***

...OBSERVATIONS IN AND NEAR THE EASTERN PANHANDLE OF NEBRASKA...

CITY           SKY/WX    TMP DP  RH WIND       PRES   REMARKS
PINE RIDGE     PTSUNNY   89  57  33 SE8       29.76F
CHADRON        PTSUNNY   96  44  16 SE5       29.73F HX  92
ALLIANCE       MOSUNNY   91  52  26 S15       29.80F
SIDNEY         MOSUNNY   93  52  24 S17G23    29.84F HX  90
WHITECLAY        N/A     90  54  29 S10         N/A
RUSHVILLE        N/A    100  47  16 SW13        N/A  HX  96
GORDON           N/A    101  54  20 S14         N/A  HX  99
CRESCENT LAKE    N/A     92  52  25 S9          N/A
LISCO            N/A     91  46  21 E15         N/A
BIG SPRINGS      N/A     89  60  37 SE7         N/A
$$

...OBSERVATIONS IN NORTH CENTRAL NEBRASKA...

CITY           SKY/WX    TMP DP  RH WIND       PRES   REMARKS
VALENTINE      SUNNY     91  59  33 SE15      29.79S HX  90
THEDFORD       MOSUNNY   88  59  37 S13       29.81F
AINSWORTH      SUNNY     86  60  40 SE14      29.80S
O`NEILL        MOSUNNY   86  62  44 SE12      29.80F
ORD            MOSUNNY   84  66  54 SE10      29.80S
BROKEN BOW     MOSUNNY   87  67  51 SE14      29.81F HX  90
BROWNLEE         N/A     92  62  36 E12         N/A  HX  92
SPRINGVIEW       N/A     86  64  47 E9          N/A
ROSE             N/A     91  67  46 E10         N/A  HX  94
NEWPORT          N/A     86  62  44 SE13        N/A
SARGENT          N/A     84  69  60 E3          N/A
COMSTOCK         N/A     91  72  53 S13         N/A  HX  98
CHAMBERS         N/A     87  64  45 E7          N/A
EWING            N/A     85  68  56 S5          N/A
$$

...OBSERVATIONS IN SOUTHWEST NEBRASKA AND FAR NORTHEAST COLORADO...

CITY           SKY/WX    TMP DP  RH WIND       PRES   REMARKS
WRAY             N/A     95  51  22 SE10G22   29.80F HX  92
IMPERIAL       SUNNY     92  55  28 SE15      29.79F HX  90
OGALLALA       MOSUNNY   91  57  31 S12       29.79F
NORTH PLATTE   MOSUNNY   87  66  49 E20G25    29.78F
MCCOOK         MOSUNNY   95  60  31 S10G21    29.77F HX  95
LEXINGTON      MOSUNNY   86  69  55 SE12      29.81F HX  90
PAXTON           N/A     90  64  41 SE6         N/A  HX  91
SUTHERLAND       N/A     95  61  32 S12         N/A  HX  95
BRADY            N/A     85  66  53 NE5G12      N/A
GOTHENBURG       N/A     83  62  48 E12         N/A
CALLAWAY         N/A     88  74  62 SE15        N/A  HX  96
$$

...SOME WEATHER OBSERVATIONS FROM AROUND THE REGION...

CITY           SKY/WX    TMP DP  RH WIND       PRES   REMARKS
DENVER         PTSUNNY   80  43  26 W25G36    29.91R THUNDER BLWGDUST
LARAMIE        CLOUDY    74  42  31 E9G18     30.09R
CHEYENNE       CLOUDY    76  41  28 VRB6      30.01S
SCOTTSBLUFF    PTSUNNY   95  50  21 NW10      29.78F HX  92
RAPID CITY     MOSUNNY   83  62  49 SW3       29.77F
PIERRE         SUNNY     90  57  32 SE7       29.72F
WINNER         FAIR      89  60  37 E13       29.77F
SIOUX FALLS    MOSUNNY   84  60  44 VRB3      29.80S
OMAHA          MOSUNNY   89  61  38 E5        29.79S
GRAND ISLAND   MOSUNNY   88  71  57 SE12      29.81F HX  94
KANSAS CITY    MOSUNNY   90  72  55 SW5       29.81F HX  97
WICHITA        MOSUNNY   95  64  35 S20       29.79F HX  97
HAYS           MOSUNNY   97  59  28 S24G31    29.77F HX  96
LIBERAL        MOSUNNY   97  57  26 S17G23    29.83F HX  95
GOODLAND       SUNNY     96  50  20 S12       29.80F HX  93
$$



USA.gov is the U.S. government's official web portal to all federal, state and local government web resources and services.